Weather in Hua Hin

Thailand     12°33′19″N   99°57′10″E
temp.,
°C
wind,
m/s
gust,
m/s
humid.,
%
clouds,
%
prec.,
mm/h
press.,
hPa
HPBL,
m
16 april, fri
fri1601:00+27ssw4571100 0.1 1008173
04:00+26sw237558 0.0 1008139
07:00+27sw227595 0.0 1009177
10:00+30se22608 0.0 1011604
13:00+31ese656147 0.0 1009821
16:00+31se6666100 0.0 1006689
19:00+30s687028 0.3 1007547
22:00+29sw587190 0.3 1011351
17 april, sat
sat1701:00+27sw4675100 0.3 1010275
04:00+26sw3479100 0.0 1009206
07:00+27sw3479100 0.0 1011221
10:00+31sw2358100 0.0 1012876
13:00+32ese6656100 0.6 10091405
16:00+29se3470100 4.7 1008238
19:00+29wsw5770100 5.3 1009367
22:00+27wsw3573100 0.0 1011275
18 april, sun
sun1801:00+27wsw127379 0.0 1011161
04:00+26wsw22778 0.0 1010127
07:00+26wsw127497 0.0 1011155
10:00+30se115841 0.0 1012647
13:00+30ese646026 0.0 1009671
16:00+30se446294 0.0 1007468
19:00+30s336527 0.5 1008336
22:00+28sw446987 0.0 1010232
19 april, mon
mon1901:00+27wsw347536 0.0 1009204
04:00+26wsw357698 0.0 1008208
07:00+26wsw347452 0.0 1010207
10:00+31w355297 0.0 10101025
13:00+32ese445398 0.0 10071367
16:00+32nw1351100 0.5 1006931
19:00+29wsw71061100 0.6 1007593
22:00+29wsw4863100 0.0 1008487
20 april, tue
tue2001:00+27wsw3370100 0.0 1007234
04:00+26wsw2376100 0.0 1007185
07:00+26w2276100 0.0 1009197
10:00+31nw124958 0.0 1010758
13:00+31e6551100 0.0 1007982
16:00+31se666397 0.0 1006552
19:00+30sse34695 1.1 1007239
22:00+28sw586685 0.0 1009353